Showing default

COSMOS 1996, 19787

Orbit data source: Space-Track

COSMOS 1996, 19787 is a payload satellite owned by UNKS (CIS) in LEO that was launched on Fri, 10 Feb 1989 UTC via a TSIKLON-3 launch vehicle from the Plesetsk Missile And Space Complex (PKMTR). Payload-class satellites include a variety of spacecraft equipped with specific instruments for various scientific and technological missions. These include communications satellites like Starlink; space stations such as the ISS; scientific satellites like the Hubble; Earth observation satellites from companies like Planet Labs, Umbra, and HawkEye 360; GPS; miniature CubeSats for education and research; and military/defense satellites.

Loading next visibility...
Identifier
19787, 1989-009C
Orbit
LEO
Country
Flag of CISCIS
Related business
Manufacturer
NPO PM
Mission
Defense Communications
Bus & Motor
STRELA-3, Unknown motor
Mass
225 kg wet, 225 kg dry
Launch date (UTC)
1989-02-10 (38 years ago)
Launch vehicle
TSIKLON-3
Launch site
Plesetsk Missile And Space Complex (PKMTR)
Object type
Payload
Rocket body
Debris
Shape & HBR
Cyl, 0.9 m
Radar Cross Section
1.257 m², Large (>1 m²)

Expand to show TLE details & history
Last TLE update: 1 day ago

TLE from 1 day ago
0 COSMOS 1996
1 19787U 89009C   26262.07749101  .00000014  00000-0  15958-4 0  9992
2 19787  82.6132 306.5139 0006294 186.6002 199.3529 12.62927515733288
Epoch: 2026-09-19T01:51Z
TLE epoch observation values (Epoch: 2026-09-19T01:51:35.223Z)
Latitude
25.72762°
Longitude
-75.81016°
Altitude
1,418.489 km
Speed
7.151 km/s
True Right ascension
20h 40m 18s
True Declination
25° 36' 17"
Sunlit
Object was in full shadow at epoch
Visualization orbit readout
Latitude
Unknown
Longitude
Unknown
Altitude
Unknown
Speed
Unknown
Apparent Right ascension
Unknown
Apparent Declination
Unknown
Sunlit
N/A
Visualization observer readout
Local Sidereal Time
18:20:28
Azimuth
Unknown
Elevation
Unknown
Doppler factor
Unknown
Orbital elements
Apogee altitude
1,413.104 km
Perigee altitude
1,403.302 km
Semi-major axis
7,786.34 km
Eccentricity
0.00063
Inclination
82.6132°
RAAN
306.5139°
Arg. of periapsis
186.6002°
True anomaly
199.32902°
Mean anomaly
199.3529°
Eccentric anomaly
199.34096°
Mean motion
3.15895 °/min
Orbital period
113.96 mins
BSTAR
0.000015958
Loading maneuver chart data...
Computing Atmospheric mass density...
Loading historical data...
Loading historical data...
Loading historical data...
Loading historical data...
Loading historical data...
Loading historical data...
Loading historical data...

Documentation

Showing up to 5 results
|